This demonstration page uses our WeatherBlox Daily Observations layout. Learn more.

Left ArrowRight Arrow

Hourly Observations for September 13, 2021

Temp ( °F °C ) Dew Point ( °F °C ) Humidity (%) Winds ( mph kmh ) Pressure ( in mb ) Visibility ( mi km ) Precip ( " mm )
12:54 am 00:54 Clear 64 17.8 61 16.1 90 90 NE 3 6 30.00 1016 10 16 N/A
1:54 am 01:54 Clear 67 19.4 63 17.2 87 87 ESE 6 9 29.96 1015 10 16 N/A
2:54 am 02:54 Clear 66 18.9 62 16.7 87 87 E 3 6 29.94 1014 10 16 N/A
3:54 am 03:54 Clear 62 16.7 60 15.6 93 93 N 6 9 29.93 1013 9 14 N/A
4:54 am 04:54 Clear 62 16.7 60 15.6 93 93 NNE 3 6 29.91 1013 9 14 N/A
5:54 am 05:54 Clear 62 16.7 60 15.6 93 93 N N/A 29.90 1013 10 16 N/A
6:54 am 06:54 Clear 61 16.1 59 15 93 93 N N/A 29.90 1013 10 16 N/A
7:54 am 07:54 Sunny 65 18.3 60 15.6 84 84 S 3 6 29.91 1013 10 16 N/A
8:54 am 08:54 Sunny 67 19.4 62 16.7 84 84 S 5 7 29.90 1012 10 16 N/A
9:54 am 09:54 Sunny 70 21.1 61 16.1 73 73 WSW 6 9 29.88 1012 10 16 N/A
10:54 am 10:54 Sunny 77 25 63 17.2 62 62 SW 6 9 29.88 1012 10 16 N/A
11:54 am 11:54 Sunny 80 26.7 64 17.8 58 58 undefined N/A 29.85 1011 10 16 N/A
12:54 pm 12:54 Sunny 82 27.8 65 18.3 56 56 SSE 8 13 29.84 1011 10 16 N/A
1:54 pm 13:54 Sunny 87 30.6 65 18.3 48 48 SSW 10 17 29.80 1009 10 16 N/A
2:54 pm 14:54 Sunny 89 31.7 65 18.3 45 45 S 13 20 29.78 1008 10 16 N/A
3:54 pm 15:54 Sunny 90 32.2 64 17.8 42 42 S 13 20 29.76 1008 10 16 N/A
4:54 pm 16:54 Sunny 90 32.2 64 17.8 42 42 S 17 28 29.75 1007 10 16 N/A
5:54 pm 17:54 Sunny 86 30 64 17.8 48 48 S 14 22 29.74 1007 10 16 N/A
6:54 pm 18:54 Sunny 84 28.9 64 17.8 51 51 S 3 6 29.74 1007 10 16 N/A
7:54 pm 19:54 Clear 77 25 65 18.3 66 66 ENE 5 7 29.73 1007 10 16 N/A
8:54 pm 20:54 Clear 78 25.6 64 17.8 62 62 E 5 7 29.74 1007 10 16 N/A
9:54 pm 21:54 Clear 75 23.9 64 17.8 69 69 NW 6 9 29.76 1008 10 16 N/A
10:54 pm 22:54 Clear 73 22.8 63 17.2 71 71 S 5 7 29.75 1008 10 16 N/A
11:54 pm 23:54 Clear 72 22.2 66 18.9 82 82 N 8 13 29.77 1008 10 16 N/A

Powered by AerisWeather